Regional Weather Roundup
Issued by NWS Goodland, KS

Home | Current Version | Previous Version | Text Only | Print | Product List | Glossary On
Versions: 1 2 3 4 5 6 7 8 9 10 11 12 13 14 15 16 17 18 19 20 21 22 23 24 25 26 27 28 29 30 31 32 33 34 35 36 37 38 39 40 41 42 43 44 45 46 47 48 49 50
000
ASUS43 KGLD 032359
RWRGLD

GOODLAND FORECAST AREA HOURLY WEATHER ROUNDUP
NATIONAL WEATHER SERVICE GOODLAND KS
600 PM MDT FRI JUL 03 2015

...OFFICIAL OBSERVATIONS...

CITY           SKY/WX    TMP DP  RH WIND       PRES   REMARKS
GOODLAND KS    MOSUNNY   84  54  35 S5        30.00F
HILL CITY KS   SUNNY     84  57  39 NE10      29.96F
IMPERIAL NEB   SUNNY     86  54  33 E5        29.99F
MCCOOK NEB     SUNNY     83  61  47 E10       29.97F
AKRON CO       MOSUNNY   82  56  40 VRB3      30.05F
BURLINGTON CO  SUNNY     84  54  35 E10       30.03F
LIMON CO       SUNNY     80  54  40 SE7       30.08F
$$

...UNOFFICIAL OBSERVATIONS...

CITY           SKY/WX    TMP DP  RH WIND       PRES   REMARKS
COLBY KS       MOSUNNY   88  61  40 E10       29.99S
GOVE KS          N/A     82  32  16 MISG        N/A
NORTON KS      SUNNY     79  54  41 NE8       29.96F
SHARON SPRINGS   N/A     89  58  34 CALM        N/A
KIT CARSON CO    N/A     87  57  36 MISG        N/A
YUMA CO          N/A     84  58  41 SE5         N/A
$$



USA.gov is the U.S. government's official web portal to all federal, state and local government web resources and services.